Weather History for KDLS - February, 2014

Change the Weather History Date:

Friday, February 21, 2014

  Actual Average Record
Temperature  
Mean Temperature 48 °F -  
Max Temperature 52 °F 51 °F 66 °F (1988)
Min Temperature 39 °F 33 °F 16 °F (1952)
Degree Days  
Heating Degree Days 18    
Moisture  
Dew Point 33 °F    
Average Humidity 60    
Maximum Humidity 70    
Minimum Humidity 48    
Precipitation  
Precipitation 0.00 in - - ()
Sea Level Pressure  
Sea Level Pressure 30.19 in    
Wind  
Wind Speed 16 mph (NW)    
Max Wind Speed 24 mph    
Max Gust Speed 34 mph    
Visibility 10 miles    
Events      
Averages and records for this station are not official NWS values.
T = Trace of Precipitation, MM = Missing Value Source: NWS Daily Summary

Daily Weather History Graph

Daily Weather History Graph

Search for Another Location

Airport or City:

Trip Planner

Search our weather history database for the weather conditions in past years. The results will help you decide how hot, cold, wet, or windy it might be!

Date:

Astronomy

Feb. 21, 2014 Rise Set
Actual Time 6:56 AM PST 5:40 PM PST
Civil Twilight 6:26 AM PST 6:10 PM PST
Nautical Twilight 5:52 AM PST 6:45 PM PST
Astronomical Twilight 5:17 AM PST 7:19 PM PST
Moon No Moon Rise 10:04 AM PST (2/21)
Length of Visible Light 11h 43m
Length of Day
10h 43m
Waning Gibbous, 59% of the Moon is Illuminated
Feb 21
Waning Gibbous
Feb 22
Last Quarter
Mar 1
New
Mar 8
First Quarter
Mar 16
Full

Hourly Weather History & Observations

Time (PST) Temp. Windchill Dew Point Humidity Pressure Visibility Wind Dir Wind Speed Gust Speed Precip Events Conditions
12:53 AM 46.0 °F 37.6 °F 36.0 °F 68% 30.16 in 10.0 mi WNW 24.2 mph 34.5 mph N/A   Clear
1:53 AM 45.0 °F 37.6 °F 35.1 °F 68% 30.18 in 10.0 mi NW 17.3 mph 25.3 mph N/A   Clear
2:53 AM 45.0 °F 38.2 °F 35.1 °F 68% 30.18 in 10.0 mi NW 15.0 mph - N/A   Clear
3:53 AM 45.0 °F 37.6 °F 35.1 °F 68% 30.18 in 10.0 mi WNW 17.3 mph 27.6 mph N/A   Clear
4:53 AM 44.1 °F 42.5 °F 34.0 °F 68% 30.19 in 10.0 mi Variable 3.5 mph - N/A   Clear
5:53 AM 45.0 °F 41.8 °F 33.1 °F 63% 30.19 in 10.0 mi North 5.8 mph - N/A   Overcast
6:53 AM 46.0 °F - 33.1 °F 61% 30.18 in 10.0 mi North - - N/A   Overcast
7:53 AM 46.0 °F 41.9 °F 33.1 °F 61% 30.19 in 10.0 mi NW 8.1 mph - N/A   Overcast
8:53 AM 48.9 °F - 34.0 °F 56% 30.20 in 10.0 mi WNW 8.1 mph - N/A   Overcast
9:53 AM 51.1 °F - 35.1 °F 54% 30.20 in 10.0 mi NW 16.1 mph 21.9 mph N/A   Overcast
10:53 AM 51.1 °F - 35.1 °F 54% 30.21 in 10.0 mi NW 16.1 mph - N/A   Overcast
11:53 AM 52.0 °F - 36.0 °F 54% 30.21 in 10.0 mi NW 23.0 mph 29.9 mph N/A   Mostly Cloudy
12:53 PM 50.0 °F - 35.1 °F 57% 30.20 in 10.0 mi NW 18.4 mph - N/A   Mostly Cloudy
1:53 PM 51.1 °F - 32.0 °F 48% 30.18 in 10.0 mi NW 17.3 mph - N/A   Clear
2:53 PM 50.0 °F - 33.1 °F 52% 30.17 in 10.0 mi NW 16.1 mph - N/A   Partly Cloudy
3:53 PM 48.9 °F - 30.9 °F 50% 30.17 in 10.0 mi WNW 17.3 mph - N/A   Clear
4:53 PM 48.9 °F - 30.0 °F 48% 30.17 in 10.0 mi WNW 18.4 mph 24.2 mph N/A   Clear
5:53 PM 46.9 °F - 32.0 °F 56% 30.17 in 10.0 mi WNW 16.1 mph 25.3 mph N/A   Partly Cloudy
6:53 PM 46.0 °F 41.0 °F 32.0 °F 58% 30.19 in 10.0 mi WNW 10.4 mph 19.6 mph N/A   Scattered Clouds
7:53 PM 43.0 °F 36.4 °F 33.1 °F 68% 30.18 in 10.0 mi WNW 12.7 mph - N/A   Clear
8:53 PM 43.0 °F 36.8 °F 32.0 °F 65% 30.18 in 10.0 mi West 11.5 mph - N/A   Clear
9:53 PM 43.0 °F 36.8 °F 30.9 °F 62% 30.18 in 10.0 mi West 11.5 mph - N/A   Clear
10:53 PM 43.0 °F 36.4 °F 30.9 °F 62% 30.19 in 10.0 mi WNW 12.7 mph - N/A   Clear
11:53 PM 39.0 °F 34.8 °F 30.0 °F 70% 30.20 in 10.0 mi NNW 5.8 mph - N/A   Clear